Weather History for Louisville, KY

Change the Weather History Date:

Wednesday, July 10, 2013

  Actual Average Record
Temperature  
Mean Temperature 81 °F 79 °F  
Max Temperature 91 °F 89 °F 104 °F (1936)
Min Temperature 71 °F 70 °F 52 °F (1961)
Degree Days  
Heating Degree Days 0 0  
Month to date heating degree days 0 0  
Since 1 June heating degree days 0 5  
Since 1 July heating degree days 0 0  
Cooling Degree Days 16 14  
Month to date cooling degree days 112 140  
Year to date cooling degree days 675 638  
Since 1 June cooling degree days 447 464  
Growing Degree Days 31 (Base 50)    
Moisture  
Dew Point 72 °F    
Average Humidity 76    
Maximum Humidity 87    
Minimum Humidity 64    
Precipitation  
Precipitation 0.49 in 0.13 in 2.16 in (1991)
Month to date precipitation 2.96 1.30  
Year to date precipitation 26.31 24.96  
Snow  
Snow 0.00 in 0.00 in - ()
Month to date snowfall 0.0 0.0  
Since 1 June snowfall 0.0 0.0  
Since 1 July snowfall 0.0 0.0  
Snow Depth 0.00 in    
Sea Level Pressure  
Sea Level Pressure 29.95 in    
Wind  
Wind Speed 8 mph (SW)    
Max Wind Speed 43 mph    
Max Gust Speed 64 mph    
Visibility 8 miles    
Events Rain , Thunderstorm    
T = Trace of Precipitation, MM = Missing Value Source: NWS Daily Summary

Daily Weather History Graph

Daily Weather History Graph

Search for Another Location

Airport:

Trip Planner

Search our weather history database for the weather conditions in past years. The results will help you decide how hot, cold, wet, or windy it might be!

Date:

Astronomy

Jul. 10, 2013 Rise Set
Actual Time 6:28 AM EDT 9:07 PM EDT
Civil Twilight 5:57 AM EDT 9:38 PM EDT
Nautical Twilight 5:19 AM EDT 10:17 PM EDT
Astronomical Twilight 4:35 AM EDT 11:00 PM EDT
Moon 8:46 AM EDT (7/10) 10:20 PM EDT (7/10)
Length of Visible Light 15h 40m
Length of Day
14h 39m
Waxing Crescent, 5% of the Moon is Illuminated
Jul 10
Waxing Crescent
Jul 15
First Quarter
Jul 22
Full
Jul 29
Last Quarter
Aug 6
New

Hourly Weather History & Observations

Time (EDT) Temp. Heat Index Dew Point Humidity Pressure Visibility Wind Dir Wind Speed Gust Speed Precip Events Conditions
12:56 AM 82.9 °F 88.0 °F 72.0 °F 69% 30.00 in 10.0 mi South 5.8 mph - N/A   Overcast
1:56 AM 82.9 °F 88.0 °F 72.0 °F 69% 29.99 in 10.0 mi South 6.9 mph - N/A   Overcast
2:56 AM 82.0 °F 87.4 °F 73.0 °F 74% 29.98 in 10.0 mi SSW 6.9 mph - 0.00 in   Mostly Cloudy
3:56 AM 81.0 °F 85.8 °F 73.0 °F 77% 29.98 in 10.0 mi SW 8.1 mph - N/A   Mostly Cloudy
4:56 AM 81.0 °F 85.8 °F 73.0 °F 77% 29.98 in 10.0 mi SW 5.8 mph - N/A   Mostly Cloudy
5:56 AM 80.1 °F 84.2 °F 73.0 °F 79% 29.97 in 10.0 mi SW 4.6 mph - N/A   Scattered Clouds
6:56 AM 80.1 °F 84.2 °F 73.0 °F 79% 29.97 in 10.0 mi SSW 6.9 mph - N/A   Scattered Clouds
7:56 AM 81.0 °F 85.8 °F 73.0 °F 77% 29.96 in 10.0 mi SSW 5.8 mph - N/A   Scattered Clouds
8:56 AM 81.0 °F 85.8 °F 73.0 °F 77% 29.96 in 10.0 mi SW 10.4 mph - N/A   Mostly Cloudy
9:56 AM 84.0 °F 91.2 °F 73.9 °F 72% 29.96 in 10.0 mi SW 12.7 mph - N/A   Overcast
10:56 AM 87.1 °F 96.3 °F 75.0 °F 67% 29.94 in 10.0 mi SSW 12.7 mph - N/A   Overcast
11:56 AM 89.1 °F 99.1 °F 75.0 °F 63% 29.91 in 10.0 mi South 12.7 mph - N/A   Overcast
12:56 PM 89.1 °F 99.1 °F 75.0 °F 63% 29.95 in 10.0 mi WSW 16.1 mph 19.6 mph N/A   Overcast
1:45 PM 89.6 °F 99.8 °F 75.2 °F 62% 29.96 in 10.0 mi SW 15.0 mph 20.7 mph N/A Thunderstorm Thunderstorm
1:56 PM 86.0 °F 95.1 °F 75.0 °F 70% 29.94 in 4.0 mi WSW 12.7 mph - 0.00 in Rain , Thunderstorm Light Thunderstorms and Rain
1:58 PM 84.2 °F 92.3 °F 75.2 °F 74% 29.98 in 4.0 mi SW 26.5 mph 46.0 mph 0.01 in Rain , Thunderstorm Thunderstorms with Small Hail
2:00 PM 82.4 °F 88.2 °F 73.4 °F 74% 29.97 in 0.5 mi South 11.5 mph 46.0 mph 0.05 in Rain , Thunderstorm Heavy Thunderstorms and Rain
2:03 PM 77.0 °F - 69.8 °F 78% 29.95 in 1.0 mi ENE 9.2 mph 46.0 mph 0.30 in Rain , Thunderstorm Heavy Thunderstorms and Rain
2:07 PM 78.8 °F - 69.8 °F 74% 29.95 in 2.5 mi ENE 15.0 mph 46.0 mph 0.45 in Rain , Thunderstorm Thunderstorms and Rain
2:11 PM 77.0 °F - 69.8 °F 78% 29.94 in 4.0 mi East 9.2 mph 23.0 mph 0.45 in Rain , Thunderstorm Light Thunderstorms and Rain
2:23 PM 82.4 °F 89.5 °F 75.2 °F 79% 29.92 in 10.0 mi SE 4.6 mph - 0.45 in   Overcast
2:42 PM 86.0 °F 96.9 °F 77.0 °F 74% 29.94 in 8.0 mi West 27.6 mph 64.4 mph 0.45 in Thunderstorm Thunderstorm
2:44 PM 82.4 °F 88.2 °F 73.4 °F 74% 29.97 in 1.0 mi NNW 42.6 mph 64.4 mph 0.45 in Rain , Thunderstorm Heavy Thunderstorms and Rain
2:56 PM 72.0 °F - 69.1 °F 91% 29.95 in 1.0 mi NW 21.9 mph 36.8 mph 0.47 in Rain , Thunderstorm Heavy Thunderstorms and Rain
2:59 PM 71.6 °F - 69.8 °F 94% 29.96 in 3.0 mi NNW 24.2 mph 36.8 mph 0.00 in Rain , Thunderstorm Heavy Thunderstorms and Rain
3:09 PM 71.6 °F - 69.8 °F 94% 29.97 in 10.0 mi Calm Calm - N/A   Overcast
3:56 PM 73.0 °F - 66.9 °F 81% 29.90 in 10.0 mi NNW 3.5 mph - 0.01 in Rain , Thunderstorm Heavy Thunderstorms and Rain
4:56 PM 73.0 °F - 69.1 °F 87% 29.88 in 10.0 mi SSE 9.2 mph - 0.01 in   Unknown
5:56 PM 75.0 °F - 68.0 °F 79% 29.88 in 10.0 mi Calm Calm - N/A   Mostly Cloudy
6:56 PM 75.9 °F - 68.0 °F 76% 29.89 in 10.0 mi SW 5.8 mph - N/A   Mostly Cloudy
7:56 PM 75.9 °F - 68.0 °F 76% 29.92 in 10.0 mi SW 5.8 mph - N/A   Mostly Cloudy
8:56 PM 75.0 °F - 69.1 °F 82% 29.92 in 10.0 mi SSW 6.9 mph - N/A   Scattered Clouds
9:56 PM 73.9 °F - 70.0 °F 87% 29.93 in 10.0 mi West 3.5 mph - N/A   Mostly Cloudy
10:56 PM 73.0 °F - 69.1 °F 87% 29.94 in 10.0 mi SW 5.8 mph - N/A   Scattered Clouds
11:56 PM 73.0 °F - 69.1 °F 87% 29.94 in 10.0 mi WSW 5.8 mph - N/A   Partly Cloudy